Terminal Aerodrome Forecast
Issued by NWS

Home | Current Version | Previous Version | Text Only | Print | Product List | Glossary Off
Versions: 1 2 3 4 5 6 7 8 9 10 11 12 13 14 15 16

000
FTUS43 KBIS 141300 AAA
TAFJMS
TAF AMD
KJMS 141305Z 1413/1512 30010KT P6SM BKN012
     FM141500 31008KT P6SM BKN015
     FM141900 32009KT P6SM SCT050
     FM150200 VRB04KT P6SM SCT250=

USA.gov is the U.S. government's official web portal to all federal, state and local government web resources and services.